Location: Peebles
(55.6412°N, 3.1714°W)
Time: 15:48:19
(UTC+01:00)

Cosmos 2297 Rocket - Pass Details

Date: 26 September 2021
Orbit: 841 x 842 km, 71.0° (Epoch: 17 October)

Event Time Altitude Azimuth Distance (km) Brightness Sun altitude
Rises 23:15:41 0° 322° (NW) 3,409 6.5 -31.7°
Reaches altitude 10° 23:18:22 10° 313° (NW) 2,470 5.4 -31.9°
Enters shadow 23:22:43 31° 264° (W) 1,436 3.5 -32.2°
